www.pogodaiklimat.ru

Погода и климат >> Архив погоды >> Индия >> New Delhi


АРХИВ ПОГОДЫ в New Delhi

Время (UTC), дата Ветер
(напр.,м/с)
 
Видим.   Явления Облачность Т
(С)
Тd
(С)
f
(%)
Тe
(С)
Тes
(С)
Комфортность P
(гПа)
Po
(гПа)
Тmin
(С)
Tmax
(С)
R
(мм)
S
(см)
21 22.03 штиль 0 2000 м дымка ясно +22.0 +17.8 77 +27 +27 душно 1008.8 1009.0
00 23.03 штиль 0 2000 м дымка ясно +19.6 +17.3 87 +22 +22 комфорт 1009.0 1009.0
03 23.03 З 2 1000 м мгла ясно +22.6 +16.0 66 +27 +32 душно 1011.3 1011.0 +18.4 +35.7
06 23.03 З 1 2000 м мгла ясно +32.6 +16.9 39 +36 +56 опасность
солнечного
удара
1010.4 1010.0
09 23.03 ЮЗ 3 4000 м мгла ясно +37.0 +16.0 29 +39 +51 опасность
солнечного
удара
1007.1 1007.0
12 23.03 З 3 4000 м мгла ясно +35.4 +19.8 40 +41 +42 опасность
перегрева
1005.9 1006.0 +37.4
15 23.03 штиль 0 2000 м мгла ясно +28.0 +18.7 57 +33 +33 очень
душно
1008.6 1009.0
18 23.03 штиль 0 2000 м мгла ясно +25.0 +19.1 70 +30 +30 душно 1009.9 1010.0
21 23.03 штиль 0 2000 м дымка ясно +23.4 +19.0 76 +30 +30 очень
душно
1009.0 1009.0
00 24.03 СЗ 1 2000 м дымка ясно +21.4 +18.5 84 +26 +26 душно 1009.6 1010.0
03 24.03 штиль 0 1000 м мгла 6/4 1200 м
[Sc Ac trans]
+24.6 +19.0 71 +30 +33 очень
душно
1011.2 1011.0 +20.9 +37.4
06 24.03 С 4 2000 м мгла 5/3 1200 м
[Sc Ac trans]
+32.0 +13.5 33 +33 +40 жарко 1010.8 1011.0
09 24.03 С 4 2000 м мгла 5/0
[Ac trans Ci fib]
+34.2 +13.5 29 +35 +42 очень
жарко
1007.9 1008.0
12 24.03 СЗ 3 2000 м мгла 3/0
[Ac trans]
+32.6 +10.5 26 +32 +33 жарко 1008.2 1008.0 +34.6
15 24.03 СЗ 2 2000 м мгла ясно +27.0 +13.5 43 +29 +29 жарко 1010.2 1010.0
18 24.03 СЗ 2 2000 м мгла ясно +25.2 +14.1 50 +28 +28 жарко 1011.3 1011.0
21 24.03 З 2 2000 м мгла ясно +23.2 +14.0 56 +27 +27 душно 1010.7 1011.0
00 25.03 штиль 0 2000 м дымка ясно +18.8 +14.7 77 +20 +20 тепло 1010.0 1010.0
03 25.03 З 4 2000 м мгла 3/0
[Ci fib]
+22.4 +14.6 61 +26 +30 жарко 1011.0 1011.0 +17.7 +34.6
06 25.03 СЗ 4 4000 м мгла 3/0
[Ci fib]
+31.4 +14.4 36 +33 +44 жарко 1011.3 1011.0
09 25.03 СЗ 5 4000 м мгла 5/0
[Ac trans Ci fib]
+33.6 +11.6 26 +33 +39 жарко 1008.4 1008.0
12 25.03 З 5 4000 м мгла ясно +32.0 +12.5 30 +32 +33 жарко 1007.7 1008.0 +34.6
15 25.03 СЗ 2 2000 м мгла ясно +27.4 +14.0 44 +30 +30 жарко 1010.4 1010.0
18 25.03 З 2 2000 м мгла ясно +25.0 +14.2 51 +27 +27 жарко 1010.7 1011.0
21 25.03 З 2 2000 м мгла ясно +22.4 +15.0 63 +26 +26 жарко 1010.4 1010.0
00 26.03 З 2 2000 м мгла ясно +21.2 +15.5 70 +24 +24 комфорт 1011.1 1011.0
03 26.03 З 3 2000 м мгла ясно +23.0 +20.8 87 +30 +35 очень
душно
1013.3 1013.0 +20.8 +34.6
06 26.03 СЗ 7 4000 м пыльный позёмок ясно +32.6 +13.0 30 +33 +38 жарко 1012.0 1012.0
09 26.03 СЗ 8 2000 м пыльный позёмок ясно +34.6 +9.6 22 +34 +36 очень
жарко
1009.6 1010.0
12 26.03 СЗ 8 2000 м пыльный позёмок ясно +33.2 +12.9 29 +34 +34 очень
жарко
1008.2 1008.0 +35.2
15 26.03 З 3 2000 м мгла 3/0
[Ac trans]
+28.6 +15.2 44 +31 +31 жарко 1009.3 1009.0
18 26.03 З 2 2000 м мгла ясно +26.0 +15.2 51 +29 +29 душно 1010.1 1010.0
21 26.03 З 3 2000 м мгла ясно +25.2 +14.5 51 +28 +28 жарко 1008.7 1009.0
00 27.03 З 2 2000 м мгла ясно +23.4 +15.1 60 +28 +28 душно 1009.1 1009.0
03 27.03 З 3 2000 м мгла ясно +24.6 +15.7 58 +28 +32 душно 1011.1 1011.0 +21.8 +35.2
06 27.03 СЗ 4 2000 м мгла 1/0
[Ci fib]
+32.8 +15.1 34 +35 +46 душно 1010.8 1011.0
09 27.03 СЗ 8 4000 м пыльный позёмок ясно +36.4 +15.5 29 +38 +41 очень
душно
1008.1 1008.0
12 27.03 СЗ 6 4000 м мгла ясно +35.0 +16.9 34 +38 +38 очень
душно
1007.5 1008.0 +36.7
15 27.03 З 3 2000 м мгла ясно +30.2 +19.2 52 +36 +36 очень
душно
1009.5 1010.0
18 27.03 СЗ 2 2000 м мгла ясно +28.4 +18.4 55 +33 +33 очень
душно
1010.1 1010.0
21 27.03 З 2 2000 м мгла ясно +26.2 +18.7 63 +31 +31 очень
душно
1009.2 1009.0
00 28.03 З 2 2000 м мгла ясно +23.4 +18.3 73 +29 +29 душно 1009.1 1009.0
03 28.03 З 1 2000 м мгла ясно +26.0 +18.5 63 +31 +37 очень
душно
1010.6 1011.0 +22.6 +36.7
06 28.03 З 4 2000 м мгла ясно +34.6 +15.9 33 +37 +48 очень
душно
1009.9 1010.0
09 28.03 З 6 4000 м пыльный позёмок ясно +37.4 +11.3 21 +37 +42 очень
жарко
1007.5 1008.0
12 28.03 СЗ 5 4000 м мгла ясно +36.2 +14.8 28 +37 +38 очень
жарко
1006.2 1006.0 +38.0
15 28.03 З 1 2000 м мгла ясно +29.6 +18.1 50 +34 +34 очень
душно
1007.5 1008.0
18 28.03 З 1 2000 м мгла ясно +27.8 +17.3 53 +32 +32 душно 1008.7 1009.0
21 28.03 СЗ 1 2000 м мгла ясно +25.6 +17.7 62 +30 +30 душно 1008.3 1008.0
00 29.03 ЮЗ 3 2000 м мгла ясно +24.6 +17.5 65 +29 +29 душно 1007.7 1008.0
03 29.03 З 4 2000 м мгла ясно +27.6 +16.3 50 +31 +35 душно 1008.8 1009.0 +23.1 +38.0
06 29.03 З 7 2000 м пыльный позёмок ясно +35.0 +15.7 32 +37 +43 очень
душно
1008.5 1009.0
09 29.03 СЗ 6 4000 м пыльный позёмок ясно +38.0 +12.9 22 +38 +43 очень
жарко
1006.0 1006.0
12 29.03 СЗ 4 4000 м мгла ясно +36.8 +13.4 25 +37 +38 очень
жарко
1004.8 1005.0 +38.2
15 29.03 З 2 2000 м мгла ясно +30.2 +17.7 47 +34 +34 очень
душно
1006.9 1007.0
18 29.03 З 2 2000 м мгла ясно +28.6 +16.4 48 +32 +32 душно 1007.6 1008.0

 

Местоположение метеостанции New Delhi (Delhi, Индия): широта 28.58 долгота 77.20 высота над уровнем моря 216 м.

В архиве по умолчанию представлена погода в New Delhi за последнюю неделю. Архивные данные за месяц целиком и за предыдущие месяцы, начиная с января 2011 года, Вы можете получить, выбрав интересующий диапазон дат из раскрывающегося списка и нажав кнопку "Ввод!".

Внимание! Время в таблицах - всемирное. Для получения местного времени необходимо прибавить поправку, которая в New Delhi равна 5.5 ч.

Смотрите также архив погоды в соседних городах и на ближайших метеорологических станциях:

Погода в New Delhi Airport (Delhi, Индия) (8 км)
Погода в Ridge (Delhi, Индия) (10 км)
Погода в New Delhi Aya Nagar (Delhi, Индия) (13 км)
Погода в Meerut (Uttar Pradesh, Индия) (70 км)
Погода в Karnal (Haryana, Индия) (126 км)
Погода в Hissar (Haryana, Индия) (157 км)
Погода в Pilani (Rajasthan, Индия) (161 км)
Погода в Najibabad (Uttar Pradesh, Индия) (163 км)
Погода в Agra (Uttar Pradesh, Индия) (176 км)
Погода в Ambala (Haryana, Индия) (204 км)

Пояснения к столбцам:

Ветер - указаны скорость ветра в м/с - средняя за 10 мин, порывы в срок и между сроками (в фигурных скобках) и направление, откуда дует ветер: С - северный, СВ - северо-восточный, В - восточный, ЮВ - юго-восточный, Ю - южный, ЮЗ - юго-западный, З - западный, СЗ - северо-западный.
Видимость - горизонтальная дальность видимости в метрах или километрах. При видимости от 1 до 10 км при отсутствии осадков обычно наблюдается дымка, при ухудшении видимости до 1 км и менее - туман. В сухую погоду видимость может ухудшаться дымом, пылью или мглою.
Явления - указаны атмосферные явления, наблюдавшиеся в срок или в последний час перед сроком; фигурными скобками обозначены явления, наблюдавшиеся между сроками (за 1-3 часа до срока); квадратными скобками обозначены град или гололедные отложения с указанием их диаметра в мм.
Облачность - указаны через наклонную черту общая и нижняя облачность в баллах и высота нижней границы облаков в метрах; квадратными скобками обозначены формы облаков: Ci - перистые, Cs - перисто-слоистые, Cc - перисто-кучевые, Ac - высококучевые, As - высокослоистые, Sc - слоисто-кучевые, Ns - слоисто-дождевые, Cu - кучевые, Cb - кучево-дождевые. Подробнее классификацию облаков см. в Атласе облаков (PDF).
T - Температура воздуха - температура, измеренная на высоте 2 м над землей.
Td - Температура точки росы - температура, при понижении до которой содержащийся в воздухе водяной пар достигнет насыщения.
f - Относительная влажность воздуха - влажноcть воздуха, измеренная на высоте 2 м над землей.
Te - Эффективная температура - температура, которую ощущает одетый по сезону человек в тени. Характеристика душности погоды. При расчете учитывается влияние влажности воздуха и скорости ветра на теплоощущения человека.
Tes - Эффективная температура на солнце - температура, которую ощущает человек, с поправкой на солнечный нагрев. Характеристика знойности погоды. Зависит от высоты солнца над горизонтом, облачности и скорости ветра. Ночью, в пасмурную погоду, а также при ветре 12 м/с и более поправка равна нулю.
P - Атмосферное давление - приведенное к уровню моря атмосферное давление.
Po - Атмосферное давление - измеренное на уровне метеостанции атмосферное давление.
Tmin - Минимальная температура - минимум температуры воздуха на высоте 2 м над землей.
Tmax - Максимальная температура - максимум температуры воздуха на высоте 2 м над землей.
R - Количество осадков - Количество выпавших осадков, мм. При наведении курсора мыши на число - период времени, за который выпало указанное количество осадков.
S - Снежный покров - Высота снежного покрова, см. При наведении курсора мыши на число - состояние снежного покрова и степень покрытия местности в баллах.